timestamp,surface_pressure_avg,surface_temp_avg,battery_voltage,lat,long
2022-08-16 00:09:00+00:00,279.6464,19.4,11.7,47.84626,-54.09684
2022-08-16 00:19:00+00:00,289.2814,19.4,11.7,47.84626,-54.09684
2022-08-16 00:29:00+00:00,299.093,19.4,11.7,47.84626,-54.09684
2022-08-16 00:39:00+00:00,306.2614,19.4,11.7,47.84626,-54.09684
2022-08-16 00:49:00+00:00,315.6847,19.4,11.7,47.84626,-54.09684
2022-08-16 00:59:00+00:00,324.0997,19.4,11.7,47.84626,-54.09684
2022-08-16 01:09:00+00:00,328.6963,19.4,11.7,47.84626,-54.09684
2022-08-16 01:19:00+00:00,333.5097,19.4,11.7,47.84626,-54.09684
2022-08-16 01:29:00+00:00,343.0563,19.4,11.7,47.84626,-54.09684
2022-08-16 01:39:00+00:00,348.7981,19.4,11.7,47.84626,-54.09684
2022-08-16 01:49:00+00:00,353.2014,19.4,11.7,47.84626,-54.09684
2022-08-16 01:59:00+00:00,361.8513,19.4,11.7,47.84626,-54.09684
2022-08-16 02:09:00+00:00,363.6863,19.4,11.7,47.84626,-54.09684
2022-08-16 02:19:00+00:00,362.968,19.4,11.61,47.84626,-54.09684
2022-08-16 02:29:00+00:00,365.9913,19.4,11.61,47.84626,-54.09684
2022-08-16 02:39:00+00:00,369.0479,19.4,11.61,47.84626,-54.09684
2022-08-16 02:49:00+00:00,364.5596,19.4,11.61,47.84626,-54.09684
2022-08-16 02:59:00+00:00,362.7279,19.4,11.61,47.84626,-54.09684
2022-08-16 03:09:00+00:00,363.0179,19.4,11.61,47.84626,-54.09684
2022-08-16 03:19:00+00:00,355.8663,19.4,11.61,47.84626,-54.09684
2022-08-16 03:29:00+00:00,350.2646,19.49,11.61,47.84626,-54.09684
2022-08-16 03:39:00+00:00,351.0029,19.5,11.61,47.84626,-54.09684
2022-08-16 03:49:00+00:00,349.4746,19.5,11.61,47.84626,-54.09684
2022-08-16 03:59:00+00:00,345.2363,19.5,11.61,47.84626,-54.09684
2022-08-16 04:09:00+00:00,341.5945,19.53,11.61,47.84626,-54.09684
2022-08-16 04:19:00+00:00,338.3362,19.55,11.61,47.84626,-54.09684
2022-08-16 04:29:00+00:00,330.0030000000001,19.59,11.61,47.84626,-54.09684
2022-08-16 04:39:00+00:00,321.4429,19.65,11.61,47.84626,-54.09684
2022-08-16 04:49:00+00:00,316.2197,19.68,11.61,47.84626,-54.09684
2022-08-16 04:59:00+00:00,311.228,19.66,11.61,47.84626,-54.09684
2022-08-16 05:09:00+00:00,302.6981,19.67,11.61,47.84626,-54.09684
2022-08-16 05:19:00+00:00,294.1348,19.66,11.61,47.84626,-54.09684
2022-08-16 05:29:00+00:00,286.6547,19.68,11.61,47.84626,-54.09684
2022-08-16 05:39:00+00:00,277.1797,19.67,11.61,47.84626,-54.09684
2022-08-16 05:49:00+00:00,268.8347,19.68,11.61,47.84626,-54.09684
2022-08-16 05:59:00+00:00,262.9315,19.69,11.61,47.84626,-54.09684
2022-08-16 06:09:00+00:00,252.413,19.69,11.61,47.84626,-54.09684
2022-08-16 06:19:01+00:00,238.8981,19.69,11.61,47.84626,-54.09684
2022-08-16 06:29:01+00:00,227.1031,19.69,11.61,47.84626,-54.09684
2022-08-16 06:39:01+00:00,215.4814,19.69,11.61,47.84626,-54.09684
2022-08-16 06:49:01+00:00,203.7032,19.69,11.61,47.84626,-54.09684
2022-08-16 06:59:01+00:00,198.1365,19.69,11.61,47.84626,-54.09684
2022-08-16 07:09:01+00:00,193.8264,19.67,11.61,47.84626,-54.09684
2022-08-16 07:19:01+00:00,183.7081,19.65,11.61,47.84626,-54.09684
2022-08-16 07:29:01+00:00,177.0048,19.63,11.61,47.84626,-54.09684
2022-08-16 07:39:01+00:00,178.9415,19.61,11.61,47.84626,-54.09684
2022-08-16 07:49:01+00:00,177.2815,19.6,11.61,47.84626,-54.09684
2022-08-16 07:59:01+00:00,171.5098,19.63,11.61,47.84626,-54.09684
2022-08-16 08:09:01+00:00,174.3515,19.67,11.61,47.84626,-54.09684
2022-08-16 08:19:01+00:00,179.5698,19.65,11.53,47.84626,-54.09684
2022-08-16 08:29:01+00:00,174.4832,19.63,11.53,47.84626,-54.09684
2022-08-16 08:39:01+00:00,176.2281,19.63,11.53,47.84626,-54.09684
2022-08-16 08:49:01+00:00,185.8248,19.64,11.53,47.84626,-54.09684
2022-08-16 08:59:01+00:00,188.0481,19.7,11.53,47.84626,-54.09684
2022-08-16 09:09:01+00:00,187.7948,19.76,11.53,47.84626,-54.09684
2022-08-16 09:19:00+00:00,195.9748,19.8,11.53,47.84626,-54.09684
2022-08-16 09:29:00+00:00,202.6631,19.8,11.53,47.84626,-54.09684
2022-08-16 09:39:00+00:00,203.0031,19.8,11.53,47.84626,-54.09684
2022-08-16 09:49:00+00:00,208.1381,19.83,11.53,47.84626,-54.09684
2022-08-16 09:59:00+00:00,214.9648,19.8,11.53,47.84626,-54.09684
2022-08-16 10:09:00+00:00,216.4981,19.8,11.53,47.84626,-54.09684
2022-08-16 10:19:01+00:00,219.3931,19.8,11.53,47.84626,-54.09684
2022-08-16 10:29:01+00:00,224.8765,19.8,11.53,47.84626,-54.09684
2022-08-16 10:39:01+00:00,225.9314,19.8,11.53,47.84626,-54.09684
2022-08-16 10:49:01+00:00,226.2964,19.8,11.53,47.84626,-54.09684
2022-08-16 10:59:01+00:00,230.6864,19.79,11.53,47.84626,-54.09684
2022-08-16 11:09:01+00:00,237.2197,19.79,11.53,47.84626,-54.09684
2022-08-16 11:19:00+00:00,241.3681,19.8,11.61,47.84626,-54.09684
2022-08-16 11:29:00+00:00,245.458,19.8,11.61,47.84626,-54.09684
2022-08-16 11:39:00+00:00,251.5531,19.8,11.61,47.84626,-54.09684
2022-08-16 11:49:00+00:00,256.2348,19.8,11.61,47.84626,-54.09684
2022-08-16 11:59:00+00:00,260.3847,19.79,11.61,47.84626,-54.09684
2022-08-16 12:09:00+00:00,267.968,19.8,11.61,47.84626,-54.09684
2022-08-16 12:19:00+00:00,276.5714,19.8,11.61,47.84626,-54.09684
2022-08-16 12:29:00+00:00,282.548,19.8,11.61,47.84626,-54.09684
2022-08-16 12:39:00+00:00,286.0364,19.8,11.61,47.84626,-54.09684
2022-08-16 12:49:00+00:00,291.7781,19.8,11.61,47.84626,-54.09684
2022-08-16 12:59:00+00:00,299.5681,19.81,11.61,47.84626,-54.09684
2022-08-16 13:09:00+00:00,307.1931,19.81,11.61,47.84626,-54.09684
2022-08-16 13:19:00+00:00,312.118,19.82,11.7,47.84626,-54.09684
2022-08-16 13:29:00+00:00,317.3796,19.84,11.7,47.84626,-54.09684
2022-08-16 13:39:00+00:00,324.958,19.84,11.7,47.84626,-54.09684
2022-08-16 13:49:00+00:00,330.7679,19.85,11.7,47.84626,-54.09684
2022-08-16 13:59:00+00:00,335.1462,19.86,11.7,47.84626,-54.09684
2022-08-16 14:09:00+00:00,339.1196,19.86,11.7,47.84626,-54.09684
2022-08-16 14:19:00+00:00,341.2363,19.87,11.77,47.84626,-54.09684
2022-08-16 14:29:00+00:00,343.0896,19.88,11.77,47.84626,-54.09684
2022-08-16 14:39:00+00:00,346.8896,19.89,11.77,47.84626,-54.09684
2022-08-16 14:49:00+00:00,346.0579,19.9,11.77,47.84626,-54.09684
2022-08-16 14:59:00+00:00,342.3746,19.9,11.77,47.84626,-54.09684
2022-08-16 15:09:00+00:00,339.5413,19.9,11.77,47.84626,-54.09684
2022-08-16 15:19:01+00:00,341.903,19.9,11.86,47.84626,-54.09684
2022-08-16 15:29:01+00:00,343.3297,19.9,11.86,47.84626,-54.09684
2022-08-16 15:39:01+00:00,337.6829,19.9,11.86,47.84626,-54.09684
2022-08-16 15:49:01+00:00,334.1763,19.9,11.86,47.84626,-54.09684
2022-08-16 15:59:01+00:00,335.0229,19.9,11.86,47.84626,-54.09684
2022-08-16 16:09:01+00:00,333.0596,19.9,11.86,47.84626,-54.09684
2022-08-16 16:19:01+00:00,326.073,19.92,11.77,47.84626,-54.09684
2022-08-16 16:29:01+00:00,327.7014,19.98,11.77,47.84626,-54.09684
2022-08-16 16:39:01+00:00,330.11800000000005,19.98,11.77,47.84626,-54.09684
2022-08-16 16:49:01+00:00,319.6996,20.0,11.77,47.84626,-54.09684
2022-08-16 16:59:01+00:00,309.4496,20.02,11.77,47.84626,-54.09684
2022-08-16 17:09:01+00:00,309.3347,20.1,11.77,47.84626,-54.09684
2022-08-16 17:19:00+00:00,305.6314,20.1,11.77,47.84626,-54.09684
2022-08-16 17:29:00+00:00,293.2264,20.1,11.77,47.84626,-54.09684
2022-08-16 17:39:00+00:00,286.9463,20.1,11.77,47.84626,-54.09684
2022-08-16 17:49:00+00:00,283.2864,20.17,11.77,47.84626,-54.09684
2022-08-16 17:59:00+00:00,274.9597,20.2,11.77,47.84626,-54.09684
2022-08-16 18:09:00+00:00,263.2414,20.2,11.77,47.84626,-54.09684
2022-08-16 18:19:01+00:00,255.0981,20.2,11.77,47.84626,-54.09684
2022-08-16 18:29:01+00:00,245.0547,20.26,11.77,47.84626,-54.09684
2022-08-16 18:39:01+00:00,234.06799999999998,20.29,11.77,47.84626,-54.09684
2022-08-16 18:49:01+00:00,225.8564,20.3,11.77,47.84626,-54.09684
2022-08-16 18:59:01+00:00,215.9164,20.3,11.77,47.84626,-54.09684
2022-08-16 19:09:01+00:00,201.3381,20.3,11.77,47.84626,-54.09684
2022-08-16 19:19:00+00:00,194.7564,20.32,11.7,47.84626,-54.09684
2022-08-16 19:29:00+00:00,194.5181,20.3,11.7,47.84626,-54.09684
2022-08-16 19:39:00+00:00,185.7381,20.3,11.7,47.84626,-54.09684
2022-08-16 19:49:00+00:00,176.5548,20.3,11.7,47.84626,-54.09684
2022-08-16 19:59:00+00:00,175.9765,20.3,11.7,47.84626,-54.09684
2022-08-16 20:09:00+00:00,176.9981,20.3,11.7,47.84626,-54.09684
2022-08-16 20:19:01+00:00,172.3448,20.3,11.7,47.84626,-54.09684
2022-08-16 20:29:01+00:00,168.1815,20.3,11.7,47.84626,-54.09684
2022-08-16 20:39:01+00:00,170.9832,20.2,11.7,47.84626,-54.09684
2022-08-16 20:49:01+00:00,170.7448,20.2,11.7,47.84626,-54.09684
2022-08-16 20:59:01+00:00,165.5132,20.19,11.7,47.84626,-54.09684
2022-08-16 21:09:01+00:00,169.9448,20.19,11.7,47.84626,-54.09684
2022-08-16 21:19:00+00:00,178.2098,20.1,11.7,47.84626,-54.09684
2022-08-16 21:29:00+00:00,182.6631,20.1,11.7,47.84626,-54.09684
2022-08-16 21:39:00+00:00,186.1998,20.13,11.7,47.84626,-54.09684
2022-08-16 21:49:00+00:00,189.4098,20.2,11.7,47.84626,-54.09684
2022-08-16 21:59:00+00:00,193.3365,20.2,11.7,47.84626,-54.09684
2022-08-16 22:09:00+00:00,199.3514,20.2,11.7,47.84626,-54.09684
2022-08-16 22:19:01+00:00,203.8681,20.19,11.7,47.84626,-54.09684
2022-08-16 22:29:01+00:00,203.5432,20.18,11.7,47.84626,-54.09684
2022-08-16 22:39:01+00:00,204.4248,20.14,11.7,47.84626,-54.09684
2022-08-16 22:49:01+00:00,211.5481,20.15,11.7,47.84626,-54.09684
2022-08-16 22:59:01+00:00,215.5898,20.1,11.7,47.84626,-54.09684
2022-08-16 23:09:01+00:00,214.3514,20.0,11.7,47.84626,-54.09684
2022-08-16 23:19:00+00:00,218.6015,20.01,11.7,47.84626,-54.09684
2022-08-16 23:29:00+00:00,227.0098,20.0,11.7,47.84626,-54.09684
2022-08-16 23:39:00+00:00,230.5231,19.8,11.7,47.84626,-54.09684
2022-08-16 23:49:00+00:00,230.9998,19.86,11.7,47.84626,-54.09684
2022-08-16 23:59:00+00:00,236.2881,19.9,11.7,47.84626,-54.09684
